Regional Weather Roundup
Issued by NWS

Home | Current Version | Previous Version | Graphics & Text | Print | Product List | Glossary On
Versions: 1 2 3 4 5 6 7 8 9 10 11 12 13 14 15 16 17 18 19 20 21 22 23 24 25 26 27 28 29 30 31 32 33 34 35 36 37 38 39 40 41 42 43 44 45 46 47 48 49 50
155
ASUS45 KBOU 101407
RWRCO

WEATHER ROUNDUP FOR COLORADO
NATIONAL WEATHER SERVICE DENVER/BOULDER CO
700 AM MST SAT DEC 10 2016

NOTE: "FAIR" INDICATES FEW OR NO CLOUDS BELOW 12000 FEET WITH NO
SIGNIFICANT WEATHER AND/OR OBSTRUCTIONS TO VISIBILITY.

COZ001>005-013-030-031-101500-
...NORTHWEST COLORADO...

CITY           SKY/WX    TMP DP  RH WIND       PRES   REMARKS
CRAIG          FAIR      27  22  81 VRB5      30.00F WCI  22
HAYDEN         CLOUDY    27  19  74 E7        30.00F WCI  19
MEEKER         FAIR      39  26  59 SW17      30.02F
MOUNT WERNER   NOT AVBL
STEAMBOAT SPGS CLOUDY    23  22  95 S3        30.00F
WALDEN           N/A     32  19  59 S7        29.99F WCI  26
$$

COZ006>008-011-101500-
...WEST CENTRAL VALLEYS...

CITY           SKY/WX    TMP DP  RH WIND       PRES   REMARKS
GRAND JUNCTION FAIR      20  18  92 CALM      30.13F
MONTROSE       FAIR      24  21  88 VRB3      30.15F
EAGLE          CLEAR     18  16  93 E5        30.10F WCI  11
RIFLE          FAIR      21  19  92 CALM      30.14F
DELTA          NOT AVBL
NUCLA          FAIR      28  21  74 SE5       30.19F WCI  23
$$

COZ017>023-064>068-101500-
...SOUTHWEST COLORADO...

CITY           SKY/WX    TMP DP  RH WIND       PRES   REMARKS
DURANGO        FAIR      19  14  81 N5        30.24S WCI  12
CORTEZ         FAIR      21  19  92 NE3       30.21F
PAGOSA SPRINGS FAIR      19  18  96 CALM      30.25F
TELLURIDE      NOT AVBL
WOLF CREEK PAS SNOW      18  18 100 SW16G28   30.30R VSB 1/2 WCI   3
$$

COZ009-010-012-014-032>034-037-058>063-101500-
...CENTRAL COLORADO...

CITY           SKY/WX    TMP DP  RH WIND       PRES   REMARKS
ASPEN          FAIR      27  22  81 S7        30.07F WCI  19
BUENA VISTA    FAIR      40  14  34 W23       30.06F
COPPER MTN     LGT SNOW  28  12  50 W37G48    30.10F VSB 3/4 WCI  11
BERTHOUD PASS  LGT SNOW  21   9  58 W32G54    30.06F WCI   2
COTTONWOOD PAS FAIR      37  10  32 W26G45    30.05F
GUNNISON       FOG        9   6  88 CALM      30.24F VSB 1/4
KREMMLING      MOCLDY    43  25  49 SW18G24   29.99F
LEADVILLE      FAIR      23  12  62 VRB7      30.09F WCI  15
MONARCH PASS   FAIR      21  16  79 W41       30.28F WCI   0
SALIDA         FAIR      39  18  43 SW9G20    30.14F
SUNLIGHT       FAIR      23  19  86 SW25G33   30.13F WCI   7
WILKERSON PASS FAIR      27  10  50 SW18G30   30.09F WCI  13
$$

COZ069>075-101500-
...SAN LUIS VALLEY/SANGRE DE CRISTO MOUNTAINS...

CITY           SKY/WX    TMP DP  RH WIND       PRES   REMARKS
ALAMOSA        FAIR       3   0  87 CALM      30.20S
LA VETA PASS   FAIR      27  19  74 NE35G49   30.09F WCI   9
SAGUACHE       FAIR      12  10  92 N7        30.20F WCI   2
$$

COZ035-036-038>040-101500-
...NORTHERN COLORADO FRONT RANGE...

CITY           SKY/WX    TMP DP  RH WIND       PRES   REMARKS
DENVER INTL AP FAIR      19  16  88 SE10      29.89F WCI   7
DMNS CITY PARK   N/A     23  21  90 SE7       29.91F WCI  15
AURORA         MOCLDY    24  21  86 S15       29.90F WCI  12
FRONT RANGE AP NOT AVBL
ERIE MUNI ARPT FAIR      15  13  92 W5        29.92F WCI   7
BOULDER MUN AP FAIR      19  18  93 N3        29.91F FOG
CENTENNIAL     MOCLDY    32  21  64 VRB3      29.91F
BROOMFIELD     NOT AVBL
FORT COLLINS   FAIR      16  16 100 CALM      29.94F
LONGMONT       FAIR      15  11  86 CALM      29.95F
$$

COZ041-046-047-076>085-087-088-101500-
...PIKES PEAK/PALMER DIVIDE AND SOUTHERN FOOTHILLS...

CITY           SKY/WX    TMP DP  RH WIND       PRES   REMARKS
COLO. SPRINGS  MOCLDY    29  17  61 N10       29.98F WCI  20
A. F. ACADEMY  FAIR      22  15  76 N6        29.97F WCI  14
SCHRIEVER AFB  NOT AVBL
ELLICOTT       LGT RAIN N/A N/A N/A CALM      29.96F
FALCON         FAIR      31  17  55 NW7       30.00S WCI  24
FORT CARSON    FAIR      27  18  70 NW9       29.96F WCI  17
LIMON          FAIR      10   8  92 CALM      29.96F
MONUMENT HILL  FAIR      34  18  51 SW9       29.98S WCI  26
TRINIDAD       FAIR      37  17  44 W13       30.02F
$$

COZ042>045-048>051-090-091-101500-
...NORTHEAST COLORADO...

CITY           SKY/WX    TMP DP  RH WIND       PRES   REMARKS
GREELEY ARPT   FAIR      12   9  87 CALM      29.96F
AKRON          FAIR      16  12  84 SW7       29.93F WCI   6
BURLINGTON     FAIR      18  14  84 SW6       29.98F WCI  10
WRAY           NOT AVBL
STERLING       FAIR      16  14  93 S3        29.96F
HOLYOKE        CLOUDY    19  18  93 S6        29.99F WCI  11
FORT MORGAN    FAIR      11   9  90 W7        29.94F WCI   1
$$

COZ086-089-092>099-101500-
...SOUTHEAST COLORADO...

CITY           SKY/WX    TMP DP  RH WIND       PRES   REMARKS
PUEBLO         FAIR      16  11  80 W6        29.99F WCI   7
LA JUNTA       FAIR      19  12  74 SW5       30.00F WCI  12
LAMAR          FAIR      11   8  88 CALM      30.02F
SPRINGFIELD      N/A     21  19  92 NW7       30.00F WCI  12
$$




USA.gov is the U.S. government's official web portal to all federal, state and local government web resources and services.